WEATHER DATA

YESTERDAY
Time Temp. Dewp. Hum. Wind dir Wind speed Wind gust Bar. 1h Prec. 24h Prec.
00:00 12.3 -0.5 41 295 1.4 2.5 1021.4 0.0000 0.0000
00:10 11.9 -0.8 41 306 1.1 2.2 1021.5 0.0000 0.0000
00:20 11.5 -0.8 42 307 1.7 3.3 1021.7 0.0000 0.0000
00:30 11.1 -1.2 42 324 1.9 2.8 1021.8 0.0000 0.0000
00:40 10.8 -1.1 43 321 1.7 2.5 1021.9 0.0000 0.0000
00:50 10.4 -1.2 44 305 1.4 2.2 1022 0.0000 0.0000
01:00 10 -1.5 44 308 1.4 2.2 1022.1 0.0000 0.0000
01:10 9.6 -1.5 45 308 1.4 1.9 1022.2 0.0000 0.0000
01:21 9.3 -1.8 45 304 1.4 1.9 1022.3 0.0000 0.0000
01:30 8.9 -1.8 46 305 1.4 2.2 1022.3 0.0000 0.0000
01:40 8.6 -1.8 47 299 1.1 1.9 1022.5 0.0000 0.0000
01:51 8.1 -2 48 308 1.4 2.2 1022.7 0.0000 0.0000
02:01 7.9 -2.1 48 305 1.4 2.2 1022.8 0.0000 0.0000
02:11 7.6 -2.1 49 295 0.8 1.7 1022.9 0.0000 0.0000
02:20 7.3 -2.4 49 291 1.1 1.9 1023 0.0000 0.0000
02:31 7 -2.6 49 297 1.1 2.2 1023.1 0.0000 0.0000
02:41 6.7 -2.6 50 299 1.1 1.9 1023.4 0.0000 0.0000
02:51 6.5 -2.8 50 304 1.1 2.2 1023.5 0.0000 0.0000
03:02 6.3 -3 50 304 1.4 2.2 1023.6 0.0000 0.0000
03:12 6.2 -2.6 52 296 1.1 2.2 1023.7 0.0000 0.0000
03:21 6 -2.5 53 291 1.1 2.2 1023.9 0.0000 0.0000
03:31 5.9 -2.4 54 290 1.1 2.2 1024 0.0000 0.0000
03:42 5.8 -2.5 54 290 1.1 2.2 1024.2 0.0000 0.0000
03:52 5.7 -2.5 54 291 1.4 2.8 1024.3 0.0000 0.0000
04:02 5.6 -2.4 55 300 1.4 2.5 1024.4 0.0000 0.0000
04:12 5.5 -2.3 56 270 0.8 1.9 1024.6 0.0000 0.0000
04:22 5.4 -2.4 56 256 1.1 1.7 1024.7 0.0000 0.0000
04:32 5.4 -2.1 57 258 1.1 1.7 1024.9 0.0000 0.0000
04:42 5.4 -2.1 57 258 1.1 2.8 1025.1 0.0000 0.0000
04:53 5.5 -1.9 58 257 1.1 1.9 1025.3 0.0000 0.0000
05:02 5.5 -2.1 57 260 1.4 2.5 1025.3 0.0000 0.0000
05:12 5.5 -1.9 58 270 1.4 2.8 1025.4 0.0000 0.0000
05:23 5.6 -1.8 58 264 1.4 2.5 1025.5 0.0000 0.0000
05:33 5.6 -1.6 59 257 1.1 2.2 1025.8 0.0000 0.0000
05:43 5.7 -1.5 59 259 1.4 2.2 1025.9 0.0000 0.0000
05:52 5.8 -1.6 58 264 1.4 2.5 1026.1 0.0000 0.0000
06:03 6 -1.4 58 270 1.4 2.5 1026.2 0.0000 0.0000
06:13 6.2 -1.3 58 263 1.4 2.2 1026.2 0.0000 0.0000
06:23 6.4 -1.5 56 259 1.4 2.5 1026.3 0.0000 0.0000
06:33 6.7 -1.3 56 258 1.7 2.2 1026.3 0.0000 0.0000
06:43 6.9 -1.3 55 259 1.4 2.5 1026.4 0.0000 0.0000
06:53 7.1 -1.4 54 264 1.4 2.5 1026.3 0.0000 0.0000
07:03 7.3 -1.7 52 270 1.4 2.5 1026.4 0.0000 0.0000
07:14 7.4 -1.4 53 260 1.7 3.1 1026.5 0.0000 0.0000
07:24 7.6 -1.7 51 270 1.4 2.2 1026.5 0.0000 0.0000
07:33 7.7 -1.8 50 254 1.4 2.8 1026.6 0.0000 0.0000
07:44 7.8 -1.7 50 258 1.1 2.2 1026.7 0.0000 0.0000
07:54 7.9 -1.9 49 257 1.4 3.1 1026.7 0.0000 0.0000
08:04 8.1 -1.7 49 260 1.4 2.8 1026.7 0.0000 0.0000
08:14 8.4 -1.5 49 261 1.7 2.8 1026.7 0.0000 0.0000
08:24 8.7 -1.2 49 258 1.7 2.5 1026.7 0.0000 0.0000
08:34 9 -1 49 262 1.1 2.5 1026.7 0.0000 0.0000
08:44 9.4 -0.9 48 299 1.7 3.1 1026.7 0.0000 0.0000
08:54 9.6 -1 47 289 1.7 3.1 1026.8 0.0000 0.0000
09:05 9.7 -0.9 47 284 1.4 3.1 1026.7 0.0000 0.0000
09:14 9.9 -0.8 47 289 1.4 3.3 1026.7 0.0000 0.0000
09:24 10.2 -0.8 46 289 1.9 3.6 1026.9 0.0000 0.0000
09:35 10.4 -0.9 45 284 1.4 2.8 1027 0.0000 0.0000
09:45 10.7 -0.4 46 279 1.4 3.6 1027 0.0000 0.0000
09:55 10.9 -0.8 44 285 1.4 2.8 1027 0.0000 0.0000
10:05 11.1 -0.3 45 244 1.1 2.2 1027 0.0000 0.0000
10:15 11.3 -0.4 44 270 1.4 2.8 1027 0.0000 0.0000
10:25 11.6 -0.5 43 282 1.4 2.2 1026.9 0.0000 0.0000
10:35 11.7 -0.4 43 270 1.1 2.5 1026.9 0.0000 0.0000
10:46 11.9 -0.5 42 281 1.7 3.3 1026.8 0.0000 0.0000
10:56 12.1 -0.4 42 277 1.7 3.6 1026.7 0.0000 0.0000
11:05 12.3 -0.2 42 223 1.7 3.9 1026.8 0.0000 0.0000
11:15 12.6 0 42 215 1.7 3.3 1026.8 0.0000 0.0000
11:26 12.8 -0.1 41 263 1.7 3.9 1026.7 0.0000 0.0000
11:36 13.1 0.2 41 231 1.4 3.6 1026.7 0.0000 0.0000
11:46 13.4 0.4 41 225 1.4 2.8 1026.8 0.0000 0.0000
11:56 13.5 0.5 41 212 1.7 3.6 1026.7 0.0000 0.0000
12:06 13.8 0.1 39 258 1.7 3.9 1026.8 0.0000 0.0000
12:16 14 0.3 39 207 1.7 2.5 1026.8 0.0000 0.0000
12:26 14.1 0 38 219 1.4 3.3 1026.7 0.0000 0.0000
12:37 14.3 0.2 38 207 1.9 3.3 1026.7 0.0000 0.0000
12:46 14.5 0 37 230 1.7 4.4 1026.7 0.0000 0.0000
12:56 14.6 0.5 38 206 1.7 3.9 1026.8 0.0000 0.0000
13:07 14.8 0.6 38 254 1.7 3.6 1026.7 0.0000 0.0000
13:17 14.9 0.4 37 229 1.7 4.4 1026.8 0.0000 0.0000
13:27 15.1 0.5 37 255 1.7 3.3 1026.7 0.0000 0.0000
13:36 15.2 0.6 37 223 1.9 3.6 1026.7 0.0000 0.0000
13:47 15.4 0.8 37 252 1.7 3.1 1026.6 0.0000 0.0000
13:57 15.5 0.5 36 276 1.9 3.9 1026.6 0.0000 0.0000
14:07 15.6 0.6 36 270 1.9 4.4 1026.6 0.0000 0.0000
14:17 15.8 0.8 36 251 1.9 3.6 1026.5 0.0000 0.0000
14:27 16 1 36 270 1.9 4.7 1026.5 0.0000 0.0000
14:37 16.3 0.8 35 264 1.4 2.2 1026.5 0.0000 0.0000
14:47 16.5 1 35 270 1.7 2.5 1026.5 0.0000 0.0000
14:58 16.6 1.1 35 262 1.7 2.8 1026.5 0.0000 0.0000
15:08 16.7 1.2 35 270 1.9 3.1 1026.5 0.0000 0.0000
15:17 16.8 1.3 35 225 1.4 3.6 1026.5 0.0000 0.0000
15:28 16.9 1 34 263 1.4 2.5 1026.5 0.0000 0.0000
15:38 17 1 34 239 1.7 2.5 1026.4 0.0000 0.0000
15:48 16.9 1 34 253 1.7 2.5 1026.4 0.0000 0.0000
15:58 17 1 34 270 1.4 2.5 1026.4 0.0000 0.0000
16:08 17 1 34 207 1.4 2.2 1026.3 0.0000 0.0000
16:18 17 1 34 260 1.4 1.9 1026.3 0.0000 0.0000
16:28 17.1 0.7 33 204 1.1 1.9 1026.2 0.0000 0.0000
16:38 17.3 0.9 33 232 1.1 2.2 1026.2 0.0000 0.0000
16:49 17.2 1.2 34 228 1.4 2.2 1026.2 0.0000 0.0000
16:58 17.1 1.1 34 223 1.1 1.9 1026.2 0.0000 0.0000
17:08 17 1 34 219 1.1 1.9 1026.2 0.0000 0.0000
17:19 17 1 34 207 1.1 1.9 1026.2 0.0000 0.0000
17:29 17.1 1.1 34 207 1.1 1.9 1026.2 0.0000 0.0000
17:39 17.1 1.1 34 227 1.1 2.8 1026.2 0.0000 0.0000
17:48 17 1 34 203 1.1 1.7 1026.1 0.0000 0.0000
17:59 17 1 34 204 1.4 2.5 1026.1 0.0000 0.0000
18:09 16.9 1 34 217 1.1 1.7 1026.1 0.0000 0.0000
18:19 16.9 1 34 225 1.1 1.9 1026 0.0000 0.0000
18:30 16.9 1 34 193 1.4 2.2 1026 0.0000 0.0000
18:39 16.9 1.4 35 199 1.4 2.8 1026 0.0000 0.0000
18:49 16.9 1 34 202 1.1 1.9 1026 0.0000 0.0000
18:59 16.8 1.3 35 160 1.4 2.8 1026 0.0000 0.0000
19:10 16.7 1.2 35 147 1.7 2.8 1026 0.0000 0.0000
19:20 16.6 1.1 35 167 1.7 3.1 1025.9 0.0000 0.0000
19:29 16.4 0.9 35 155 1.4 3.1 1025.8 0.0000 0.0000
19:40 16.1 1 36 165 1.4 2.5 1026 0.0000 0.0000
19:50 15.8 0.8 36 165 1.4 2.5 1026.1 0.0000 0.0000
20:00 15.5 0.9 37 165 1.4 2.5 1026.1 0.0000 0.0000
20:11 15.2 1 38 165 1.4 2.5 1026.3 0.0000 0.0000
20:21 15 1.2 39 182 1.9 1.9 1026.4 0.0000 0.0000
20:31 14.8 1 39 182 1.9 1.9 1026.5 0.0000 0.0000
20:41 14.5 1.1 40 0 0 1026.4 0.0000 0.0000
20:54 14.2 1.1 41 182 1.9 1.9 1026.5 0.0000 0.0000
21:04 14 1 41 218 1.7 2.2 1026.6 0.0000 0.0000
21:14 13.7 1 42 217 0.6 0.6 1026.8 0.0000 0.0000
21:24 13.5 0.9 42 227 1.1 1.7 1026.9 0.0000 0.0000
21:34 13.2 0.9 43 227 1.1 1.7 1027 0.0000 0.0000
21:44 12.9 0.6 43 270 1.1 2.5 1027 0.0000 0.0000
21:55 12.6 0.7 44 250 1.1 2.8 1027.1 0.0000 0.0000
22:04 12.2 0.3 44 270 1.1 2.5 1027.2 0.0000 0.0000
22:14 11.9 0.4 45 270 1.1 2.2 1027.3 0.0000 0.0000
22:24 11.6 0.1 45 294 0.8 1.9 1027.4 0.0000 0.0000
22:35 11.3 0.1 46 270 1.1 1.9 1027.4 0.0000 0.0000
22:45 10.9 0.3 48 289 1.1 2.2 1027.6 0.0000 0.0000
22:54 10.4 0.2 49 299 1.1 2.2 1027.6 0.0000 0.0000
23:05 9.8 -0.1 50 287 0.8 1.7 1027.5 0.0000 0.0000
23:15 9.5 -0.3 50 298 0.8 2.2 1027.6 0.0000 0.0000
23:25 9.2 -0.1 52 281 0.8 1.9 1027.7 0.0000 0.0000
23:35 8.8 -0.2 53 282 1.1 2.5 1027.7 0.0000 0.0000
23:46 8.3 -0.4 54 290 1.1 2.5 1027.7 0.0000 0.0000
23:55 7.8 -0.6 55 240 1.1 1.7 1027.7 0.0000 0.0000

DAY STATISTIC

2024-05-25
TEMPERATURE
AVERAGE
11.7
HIGH
17.3
16:38
LOW
5.4
04:22
PRESSURE
AVERAGE
1025.9
HIGH
1027.7
23:25
LOW
1021.4
00:00
DEWPOINT
AVERAGE
-0.4
HIGH
1.4
18:39
LOW
-3.0
03:02
HUMIDITY
AVERAGE
44
HIGH
59
05:33
LOW
33
16:28
WIND SPEED
AVERAGE
1.4
HIGH
1.9
00:30
WIND GUST
AVERAGE
2.6
HIGH
4.7
14:27
WIND DIRECTION
PREVAILING
W
50%
N
0.0
NE
0.0
E
0.0
SE
1.4
S
10.6
SW
21.1
W
50.0
NW
16.9
PRECIPITATION
RAIN HOUR
0.0
RAIN DAY
0.0
TEMPERATURE (°C)
LOW
5.4
HIGH
17.3
AVERAGE
11.7
PRESSURE (hpa)
LOW
1021.4
HIGH
1027.7
AVERAGE
1025.9
DEVICE